Location: Unspecified
(29.2699°N, 0.0000°E)
Time: 02:51:41
(UTC+00:00)

Burner II No. 7 - Visible Passes

Search period start: 04 April 2026 00:00
Search period end: 14 April 2026 00:00
Orbit: 755 x 813 km, 98.3° (Epoch: 29 March)

Date Brightness Start Highest point End Pass type
(mag) Time Alt. Az. Time Alt. Az. Time Alt. Az.
4 Apr 8.4 05:00:59 10° SE 05:05:21 28° ENE 05:09:46 10° NNE visible
4 Apr 7.6 18:57:50 10° N 19:02:48 41° WNW 19:07:42 10° SW visible
5 Apr 9.4 04:31:58 10° E 04:34:28 14° ENE 04:36:59 10° NE visible
6 Apr 9.1 19:36:02 10° NNW 19:39:27 18° WNW 19:42:51 10° WSW visible
7 Apr 8.2 05:06:29 10° SE 05:11:03 33° ENE 05:15:42 10° N visible
7 Apr 7.9 19:03:44 10° N 19:08:32 36° WNW 19:13:15 10° SW visible
8 Apr 9.3 04:37:05 10° ESE 04:40:09 16° ENE 04:43:15 10° NNE visible
9 Apr 9.3 19:42:12 10° NNW 19:45:09 15° WNW 19:48:03 10° W visible
10 Apr 7.9 05:12:00 10° SE 05:16:46 38° ENE 05:21:37 10° N visible
10 Apr 8.2 19:09:39 10° N 19:14:15 31° WNW 19:18:46 10° SW visible
11 Apr 9.2 04:42:19 10° ESE 04:45:50 18° ENE 04:49:23 10° NNE visible
11 Apr 6.6 18:37:59 10° N 18:43:12 66° WNW 18:48:20 10° SSW visible
12 Apr 9.5 19:48:30 10° NW 19:50:49 13° WNW 19:53:07 10° W visible
13 Apr 8.5 19:15:36 10° NNW 19:19:57 27° WNW 19:24:14 10° SW visible
